Weather History for Wildwood, NJ

Change the Weather History Date:

Tuesday, November 20, 2012

  Actual Average Record
Temperature  
Mean Temperature 47 °F -  
Max Temperature 53 °F 52 °F 69 °F (1999)
Min Temperature 41 °F 38 °F 32 °F (2000)
Degree Days  
Heating Degree Days 18    
Moisture  
Dew Point 39 °F    
Average Humidity 74    
Maximum Humidity 82    
Minimum Humidity 58    
Precipitation  
Precipitation 0.00 in - - ()
Sea Level Pressure  
Sea Level Pressure 30.12 in    
Wind  
Wind Speed 8 mph (North)    
Max Wind Speed 14 mph    
Max Gust Speed 21 mph    
Visibility 10 miles    
Events      
Averages and records for this station are not official NWS values.
T = Trace of Precipitation, MM = Missing Value Source: NWS Daily Summary

Daily Weather History Graph

Daily Weather History Graph

Search for Another Location

Airport:

Trip Planner

Search our weather history database for the weather conditions in past years. The results will help you decide how hot, cold, wet, or windy it might be!

Date:

Astronomy

Nov. 20, 2012 Rise Set
Actual Time 6:48 AM EST 4:41 PM EST
Civil Twilight 6:19 AM EST 5:10 PM EST
Nautical Twilight 5:47 AM EST 5:43 PM EST
Astronomical Twilight 5:15 AM EST 6:15 PM EST
Moon 12:23 PM EST (11/20) No Moon Set
Length of Visible Light 10h 51m
Length of Day
9h 53m
Waxing Crescent, 51% of the Moon is Illuminated
Nov 20
Waxing Crescent
Nov 28
Full
Dec 6
Last Quarter
Dec 13
New
Dec 20
First Quarter

Hourly Weather History & Observations

Time (EST) Temp. Windchill Dew Point Humidity Pressure Visibility Wind Dir Wind Speed Gust Speed Precip Events Conditions
12:15 AM - - - N/A% 30.16 in 10.0 mi NE 13.8 mph 20.7 mph N/A   Overcast
12:35 AM - - - N/A% 30.16 in 10.0 mi NE 12.7 mph 19.6 mph N/A   Overcast
12:55 AM 48.2 °F - 42.8 °F 82% 30.16 in 10.0 mi NE 13.8 mph 19.6 mph N/A   Overcast
1:15 AM 48.2 °F - 42.8 °F 82% 30.16 in 10.0 mi NNE 11.5 mph 17.3 mph N/A   Overcast
1:35 AM 48.2 °F - 42.8 °F 82% 30.16 in 10.0 mi NNE 10.4 mph 17.3 mph N/A   Overcast
1:55 AM 48.2 °F - 42.8 °F 82% 30.15 in 10.0 mi NE 10.4 mph - N/A   Overcast
2:15 AM 48.2 °F - 42.8 °F 82% 30.15 in 10.0 mi NNE 10.4 mph - N/A   Overcast
2:35 AM 48.2 °F - 42.8 °F 82% 30.14 in 10.0 mi NNE 12.7 mph - N/A   Overcast
2:55 AM 48.2 °F - 42.8 °F 82% 30.14 in 10.0 mi North 11.5 mph - N/A   Overcast
3:15 AM 48.2 °F - 42.8 °F 82% 30.14 in 10.0 mi North 9.2 mph - N/A   Overcast
3:35 AM 48.2 °F - 42.8 °F 82% 30.14 in 10.0 mi North 10.4 mph - N/A   Overcast
3:55 AM 48.2 °F - 42.8 °F 82% 30.14 in 10.0 mi North 8.1 mph - N/A   Overcast
4:15 AM 48.2 °F - 41.0 °F 76% 30.14 in 10.0 mi North 8.1 mph - N/A   Overcast
4:35 AM 46.4 °F 43.5 °F 41.0 °F 81% 30.15 in 10.0 mi North 5.8 mph - N/A   Overcast
4:55 AM 46.4 °F 41.9 °F 41.0 °F 81% 30.15 in 10.0 mi North 9.2 mph - N/A   Overcast
5:15 AM 46.4 °F 41.9 °F 39.2 °F 76% 30.15 in 10.0 mi North 9.2 mph - N/A   Overcast
5:35 AM 46.4 °F 41.5 °F 39.2 °F 76% 30.15 in 10.0 mi North 10.4 mph - N/A   Overcast
5:55 AM 46.4 °F 42.4 °F 39.2 °F 76% 30.15 in 10.0 mi North 8.1 mph - N/A   Overcast
6:15 AM 46.4 °F 41.1 °F 39.2 °F 76% 30.15 in 10.0 mi NE 11.5 mph - N/A   Overcast
6:35 AM 46.4 °F 42.9 °F 39.2 °F 76% 30.15 in 10.0 mi NNE 6.9 mph - N/A   Overcast
6:55 AM 46.4 °F 42.4 °F 39.2 °F 76% 30.16 in 10.0 mi North 8.1 mph - N/A   Overcast
7:15 AM 44.6 °F 41.4 °F 39.2 °F 81% 30.16 in 10.0 mi North 5.8 mph - N/A   Overcast
7:35 AM 44.6 °F 40.2 °F 37.4 °F 76% 30.17 in 10.0 mi North 8.1 mph - N/A   Overcast
7:55 AM 44.6 °F 40.7 °F 37.4 °F 76% 30.16 in 10.0 mi North 6.9 mph - N/A   Overcast
8:15 AM 44.6 °F 41.4 °F 37.4 °F 76% 30.16 in 10.0 mi North 5.8 mph - N/A   Overcast
8:35 AM 46.4 °F 43.5 °F 37.4 °F 71% 30.15 in 10.0 mi NNW 5.8 mph - N/A   Scattered Clouds
8:55 AM 46.4 °F 43.5 °F 37.4 °F 71% 30.15 in 10.0 mi North 5.8 mph - N/A   Clear
9:15 AM 46.4 °F 42.9 °F 37.4 °F 71% 30.15 in 10.0 mi North 6.9 mph - N/A   Clear
9:35 AM 46.4 °F 42.9 °F 37.4 °F 71% 30.14 in 10.0 mi NW 6.9 mph - N/A   Partly Cloudy
9:55 AM 46.4 °F 43.5 °F 37.4 °F 71% 30.14 in 10.0 mi North 5.8 mph - N/A   Mostly Cloudy
10:15 AM 48.2 °F - 39.2 °F 71% 30.13 in 10.0 mi North 5.8 mph - N/A   Overcast
10:35 AM 50.0 °F - 39.2 °F 66% 30.12 in 10.0 mi NE 8.1 mph - N/A   Mostly Cloudy
10:55 AM 51.8 °F - 39.2 °F 62% - 10.0 mi NNE 8.1 mph - N/A   Scattered Clouds
11:15 AM 51.8 °F - 39.2 °F 62% - 10.0 mi NNE 8.1 mph - N/A   Partly Cloudy
11:35 AM 51.8 °F - 39.2 °F 62% - 10.0 mi North 4.6 mph - N/A   Clear
11:55 AM 53.6 °F - 39.2 °F 58% - 10.0 mi NE 3.5 mph - N/A   Clear
12:15 PM 51.8 °F - 39.2 °F 62% - 10.0 mi NNW 6.9 mph - N/A   Partly Cloudy
12:35 PM 51.8 °F - 39.2 °F 62% - 10.0 mi WNW 8.1 mph - N/A   Partly Cloudy
12:55 PM 51.8 °F - 39.2 °F 62% - 10.0 mi WNW 5.8 mph - N/A   Partly Cloudy
1:15 PM 51.8 °F - 39.2 °F 62% - 10.0 mi WNW 8.1 mph - N/A   Scattered Clouds
1:35 PM 50.0 °F - 39.2 °F 66% - 10.0 mi WNW 6.9 mph - N/A   Partly Cloudy
1:55 PM 50.0 °F - 39.2 °F 66% - 10.0 mi NW 8.1 mph - N/A   Clear
2:15 PM 48.2 °F - 39.2 °F 71% - 10.0 mi NW 4.6 mph - N/A   Clear
2:35 PM 48.2 °F - 39.2 °F 71% - 10.0 mi NNW 6.9 mph - N/A   Clear
2:55 PM 48.2 °F - 39.2 °F 71% - 10.0 mi NW 3.5 mph - N/A   Clear
3:15 PM 48.2 °F - 39.2 °F 71% 30.08 in 10.0 mi Calm Calm - N/A   Clear
3:35 PM 48.2 °F - 39.2 °F 71% 30.07 in 10.0 mi Calm Calm - N/A   Clear
3:55 PM 48.2 °F - 39.2 °F 71% 30.08 in 10.0 mi Calm Calm - N/A   Clear
4:15 PM 48.2 °F - 39.2 °F 71% 30.08 in 10.0 mi ESE 3.5 mph - N/A   Clear
4:35 PM 48.2 °F - 39.2 °F 71% 30.08 in 10.0 mi ENE 5.8 mph - N/A   Clear
4:55 PM 48.2 °F - 39.2 °F 71% 30.07 in 10.0 mi NE 4.6 mph - N/A   Clear
5:15 PM 46.4 °F 43.5 °F 39.2 °F 76% 30.07 in 10.0 mi NE 5.8 mph - N/A   Clear
5:35 PM 46.4 °F 44.3 °F 39.2 °F 76% 30.07 in 10.0 mi NE 4.6 mph - N/A   Clear
5:55 PM 46.4 °F 44.3 °F 39.2 °F 76% 30.08 in 10.0 mi NE 4.6 mph - N/A   Clear
6:15 PM 46.4 °F 44.3 °F 39.2 °F 76% 30.09 in 10.0 mi NE 4.6 mph - N/A   Clear
6:35 PM 46.4 °F 42.9 °F 39.2 °F 76% 30.08 in 10.0 mi NE 6.9 mph - N/A   Clear
6:55 PM 46.4 °F 43.5 °F 39.2 °F 76% 30.09 in 10.0 mi NE 5.8 mph - N/A   Clear
7:15 PM 46.4 °F 42.9 °F 37.4 °F 71% 30.09 in 10.0 mi NE 6.9 mph - N/A   Clear
7:35 PM 44.6 °F 41.4 °F 37.4 °F 76% 30.10 in 10.0 mi NNE 5.8 mph - N/A   Clear
7:55 PM 44.6 °F 41.4 °F 37.4 °F 76% 30.10 in 10.0 mi NNE 5.8 mph - N/A   Clear
8:15 PM 44.6 °F 43.1 °F 37.4 °F 76% 30.10 in 10.0 mi North 3.5 mph - N/A   Clear
8:35 PM 44.6 °F - 37.4 °F 76% 30.11 in 10.0 mi Calm Calm - N/A   Clear
8:55 PM 42.8 °F - 35.6 °F 76% 30.11 in 10.0 mi Calm Calm - N/A   Clear
9:15 PM 41.0 °F 39.0 °F 35.6 °F 81% 30.11 in 10.0 mi NNW 3.5 mph - N/A   Clear
9:35 PM 41.0 °F 38.0 °F 35.6 °F 81% 30.10 in 10.0 mi North 4.6 mph - N/A   Clear
9:55 PM 42.8 °F 39.3 °F 37.4 °F 81% 30.11 in 10.0 mi North 5.8 mph - N/A   Clear
10:15 PM 42.8 °F 40.1 °F 37.4 °F 81% 30.11 in 10.0 mi North 4.6 mph - N/A   Clear
10:35 PM 42.8 °F 41.1 °F 37.4 °F 81% 30.11 in 10.0 mi North 3.5 mph - N/A   Clear
10:55 PM 42.8 °F 41.1 °F 37.4 °F 81% 30.11 in 10.0 mi North 3.5 mph - N/A   Clear
11:15 PM 42.8 °F 39.3 °F 35.6 °F 76% 30.11 in 10.0 mi North 5.8 mph - N/A   Clear
11:35 PM 42.8 °F 39.3 °F 35.6 °F 76% 30.10 in 10.0 mi North 5.8 mph - N/A   Clear
11:55 PM 41.0 °F 36.4 °F 35.6 °F 81% 30.09 in 10.0 mi NNE 6.9 mph - N/A   Clear